{"data":{"norad_id":67011,"intl_designator":"2025-293J","name":"STARLINK-36167","alt_names":[],"object_type":"PAYLOAD","status":"ACTIVE","operator":null,"country":"US","launch_date":"2025-12-10","launch_site_code":"AFWTR","launch_vehicle":null,"mission":null,"orbit_class":"UNKNOWN","rcs_meters":null,"size_class":null,"mass_kg":null,"dimensions":null,"purposes":["comms"],"wikipedia_slug":null,"has_3d_model":false,"image_url":null,"decayed_at":null,"tle_current":{"epoch":"2026-05-24T16:13:37.514496Z","epoch_age_seconds":96398,"freshness":"FRESH","line1":"1 67011U 25293J   26144.67612864 -.00001564  00000+0 -12334-3 0  9996","line2":"2 67011  70.0007 262.7120 0003006 267.8672  92.2143 14.98329591 26277","mean_motion":14.98329591,"eccentricity":0.0003006,"inclination_deg":70.0007,"raan_deg":262.712,"arg_perigee_deg":267.8672,"mean_anomaly_deg":92.2143,"bstar":-0.00012334,"rev_number":2627,"period_min":96.107025360083,"perigee_km":569.96792738025,"apogee_km":574.14638410668,"semimajor_km":6950.1941557435,"source":"CELESTRAK","updated_at":"2026-05-25T13:38:21.430927Z"}}}